Location: *
(49.9853°N, 3.5569°E)
Time: 23:59:14
(UTC+00:00)

Cosmos 405 Rocket - Pass Details

Date: 18 December 2019
Orbit: 490 x 554 km, 81.3° (Epoch: 21 January)

Event Time Altitude Azimuth Distance (km) Brightness Sun altitude
Rises 17:41:50 0° 345° (NNW) 2,585 6.3 -17.6°
Reaches altitude 10° 17:43:57 10° 343° (NNW) 1,701 5.3 -17.9°
Maximum altitude 17:47:38 65° 262° (W) 552 3.0 -18.5°
Drops below altitude 10° 17:51:21 10° 179° (S) 1,709 5.5 -19.1°
Sets 17:53:29 0° 177° (S) 2,598 6.4 -19.4°
